Location: Derby
(52.9213°N, 1.4761°W)
Time: 15:59:02
(UTC+01:00)

Vanguard 1 - Pass Details

Date: 25 May 2025
Orbit: 649 x 3822 km, 34.3° (Epoch: 14 June)

Event Time Altitude Azimuth Distance (km) Brightness Sun altitude
Rises 15:10:04 0° 204° (SSW) 7,944 15.2 49.9°
Reaches altitude 10° 15:17:25 10° 192° (SSW) 6,875 15.0 49.0°
Maximum altitude 15:32:23 23° 150° (SSE) 5,194 14.0 47.2°
Drops below altitude 10° 15:44:04 10° 106° (ESE) 5,326 13.6 45.7°
Sets 15:48:38 0° 93° (E) 5,864 13.7 45.1°
